Date,TemperatureHighF,TemperatureAvgF,TemperatureLowF,DewpointHighF,DewpointAvgF,DewpointLowF,HumidityHigh,HumidityAvg,HumidityLow,PressureMaxIn,PressureMinIn,WindSpeedMaxMPH,WindSpeedAvgMPH,GustSpeedMaxMPH,PrecipitationSumIn
2013-10-1,86,78,70,72,68,63,95,73,47,29.94,29.84,13,7,18,0.00
2013-10-2,85,78,73,73,71,70,93,79,60,29.99,29.84,18,9,23,0.00
2013-10-3,87,80,74,73,71,69,89,74,56,29.91,29.77,19,12,25,0.00
2013-10-4,86,80,74,72,70,68,90,74,57,29.90,29.80,19,12,27,0.00
2013-10-5,80,62,52,71,57,46,94,83,68,30.10,29.84,15,6,25,0.00
2013-10-6,73,62,53,54,45,34,95,59,24,30.14,30.04,13,5,19,0.00
2013-10-7,75,63,51,55,47,41,91,61,30,30.19,30.08,12,3,14,0.00
2013-10-8,77,67,58,57,52,49,81,59,40,30.14,30.00,14,7,21,0.00
2013-10-9,79,68,58,58,55,53,86,64,42,30.09,29.98,15,8,19,0.00
2013-10-10,80,70,61,65,59,56,86,69,48,30.06,29.88,21,9,23,0.00
2013-10-11,81,75,68,71,67,60,90,78,69,29.92,29.80,16,10,26,0.00
2013-10-12,86,78,74,74,72,70,90,82,60,29.98,29.85,14,6,18,0.00
2013-10-20,70,58,46,49,44,41,88,63,37,30.10,29.88,17,8,29,0.00
2013-10-21,61,57,53,55,51,43,88,80,65,30.15,29.92,11,6,17,0.00
2013-10-22,74,58,46,56,48,42,94,70,41,30.18,30.02,8,3,16,0.00
2013-10-23,80,63,51,55,51,47,95,69,33,30.16,30.03,10,3,17,0.00
2013-10-24,68,62,55,53,49,42,86,62,47,30.34,30.04,13,7,22,0.00
2013-10-25,63,55,49,47,43,37,80,64,50,30.46,30.28,19,13,30,0.00
2013-10-26,61,56,52,60,52,46,96,89,74,30.28,30.09,29,8,32,0.00
2013-10-27,63,59,56,59,57,54,96,92,85,30.15,30.03,6,2,8,0.00
2013-10-28,71,63,56,66,60,54,96,91,84,30.13,30.03,15,7,22,0.00
2013-10-29,74,71,68,69,67,65,91,88,84,30.07,29.98,19,12,29,0.00
2013-10-30,72,68,65,68,66,63,95,91,88,30.00,29.78,24,15,31,0.00
2013-10-31,69,66,58,67,56,45,96,73,44,29.87,29.66,26,7,29,0.00